Location: Boda
(47.1872°N, 9.5454°E)
Time: 09:39:47
(UTC+00:00)

Cosmos 1470 - Pass Details

Date: 14 May 2021
Orbit: 521 x 540 km, 82.5° (Epoch: 16 June)

Event Time Altitude Azimuth Distance (km) Brightness Sun altitude
Rises 00:21:48 0° 350° (N) 2,681 7.4 -22.6°
Reaches altitude 10° 00:23:57 10° 351° (N) 1,789 6.3 -22.5°
Maximum altitude 00:27:53 89° 83° (E) 540 2.6 -22.3°
Enters shadow 00:27:55 89° 142° (SE) 540 2.6 -22.3°
